Weather History for Hebron, NE

Change the Weather History Date:

Monday, January 14, 2013

  Actual Average Record
Temperature  
Mean Temperature 18 °F -  
Max Temperature 30 °F 35 °F 65 °F (1987)
Min Temperature 5 °F 11 °F -10 °F (1964)
Degree Days  
Heating Degree Days 48    
Moisture  
Dew Point 9 °F    
Average Humidity 68    
Maximum Humidity 83    
Minimum Humidity 41    
Precipitation  
Precipitation 0.00 in - - ()
Sea Level Pressure  
Sea Level Pressure 30.37 in    
Wind  
Wind Speed 2 mph (West)    
Max Wind Speed 9 mph    
Max Gust Speed -    
Visibility 10 miles    
Events      
Averages and records for this station are not official NWS values.
T = Trace of Precipitation, MM = Missing Value Source: NWS Daily Summary

Daily Weather History Graph

Daily Weather History Graph

Search for Another Location

Airport:

Trip Planner

Search our weather history database for the weather conditions in past years. The results will help you decide how hot, cold, wet, or windy it might be!

Date:

Astronomy

Jan. 14, 2013 Rise Set
Actual Time 7:50 AM CST 5:28 PM CST
Civil Twilight 7:21 AM CST 5:58 PM CST
Nautical Twilight 6:47 AM CST 6:31 PM CST
Astronomical Twilight 6:15 AM CST 7:04 PM CST
Moon 9:25 AM CST (1/14) 9:15 PM CST (1/14)
Length of Visible Light 10h 37m
Length of Day
9h 37m
Waxing Crescent, 11% of the Moon is Illuminated
Jan 14
Waxing Crescent
Jan 18
First Quarter
Jan 26
Full
Feb 3
Last Quarter
Feb 10
New

Hourly Weather History & Observations

Time (CST) Temp. Windchill Dew Point Humidity Pressure Visibility Wind Dir Wind Speed Gust Speed Precip Events Conditions
12:15 AM 11.1 °F 4.9 °F 5.7 °F 79% 30.34 in 10.0 mi WSW 3.5 mph - N/A   Clear
12:35 AM 12.2 °F - 6.4 °F 78% 30.34 in 10.0 mi Calm Calm - N/A   Clear
1:15 AM 11.3 °F - 5.9 °F 79% 30.35 in 10.0 mi Calm Calm - N/A   Clear
1:35 AM 10.8 °F - 5.5 °F 79% 30.34 in 10.0 mi Calm Calm - N/A   Clear
1:55 AM 10.8 °F - 5.5 °F 79% 30.35 in 10.0 mi Calm Calm - N/A   Clear
2:15 AM 10.9 °F - 5.5 °F 79% 30.36 in 10.0 mi Calm Calm - N/A   Clear
2:55 AM 10.0 °F - 4.6 °F 79% 30.38 in 10.0 mi Calm Calm - N/A   Clear
3:15 AM 9.1 °F - 4.5 °F 81% 30.38 in 10.0 mi Calm Calm - N/A   Clear
3:35 AM 9.0 °F - 4.3 °F 81% 30.37 in 10.0 mi Calm Calm - N/A   Clear
3:55 AM 9.0 °F - 4.3 °F 81% 30.37 in 10.0 mi Calm Calm - N/A   Clear
4:15 AM 8.4 °F - 3.9 °F 82% 30.37 in 10.0 mi Calm Calm - N/A   Clear
4:35 AM 8.4 °F - 3.9 °F 82% 30.37 in 10.0 mi Calm Calm - N/A   Clear
4:55 AM 8.1 °F - 3.6 °F 82% 30.36 in 10.0 mi Calm Calm - N/A   Clear
5:15 AM 7.7 °F - 3.2 °F 82% 30.37 in 10.0 mi Calm Calm - N/A   Clear
5:35 AM 7.2 °F - 2.5 °F 81% 30.38 in 10.0 mi Calm Calm - N/A   Clear
5:55 AM 7.3 °F - 2.8 °F 82% 30.38 in 10.0 mi Calm Calm - N/A   Clear
6:15 AM 7.7 °F - 3.0 °F 81% 30.39 in 10.0 mi Calm Calm - N/A   Clear
6:35 AM 6.4 °F - 1.4 °F 80% 30.40 in 10.0 mi Calm Calm - N/A   Clear
6:55 AM 6.3 °F - 1.8 °F 82% 30.42 in 10.0 mi Calm Calm - N/A   Clear
7:15 AM 6.3 °F - 1.4 °F 80% 30.42 in 10.0 mi Calm Calm - N/A   Clear
7:35 AM 5.5 °F - 1.0 °F 82% 30.42 in 10.0 mi Calm Calm - N/A   Clear
7:55 AM 6.8 °F - 1.9 °F 80% 30.43 in 10.0 mi Calm Calm - N/A   Clear
8:15 AM 6.8 °F - 1.9 °F 80% 30.43 in 10.0 mi Calm Calm - N/A   Clear
8:35 AM 8.2 °F - 3.0 °F 79% 30.44 in 10.0 mi Calm Calm - N/A   Clear
8:55 AM 10.0 °F - 4.1 °F 77% 30.45 in 10.0 mi Calm Calm - N/A   Clear
9:15 AM 12.4 °F 6.3 °F 6.4 °F 77% 30.46 in 10.0 mi West 3.5 mph - N/A   Clear
9:35 AM 14.5 °F 7.1 °F 8.1 °F 75% 30.46 in 10.0 mi West 4.6 mph - N/A   Clear
9:55 AM 16.5 °F 9.4 °F 9.5 °F 74% 30.46 in 10.0 mi West 4.6 mph - N/A   Clear
10:15 AM 18.7 °F 11.9 °F 10.6 °F 71% 30.45 in 10.0 mi West 4.6 mph - N/A   Clear
10:35 AM 20.7 °F 13.0 °F 10.9 °F 66% 30.44 in 10.0 mi West 5.8 mph - N/A   Clear
10:55 AM 21.9 °F 15.7 °F 11.7 °F 65% 30.44 in 10.0 mi West 4.6 mph - N/A   Clear
11:35 AM 24.8 °F 19.1 °F 12.4 °F 59% 30.41 in 10.0 mi WSW 4.6 mph - N/A   Clear
11:55 AM 26.2 °F 19.6 °F 12.4 °F 56% 30.40 in 10.0 mi WSW 5.8 mph - N/A   Clear
12:15 PM 26.4 °F 20.9 °F 10.4 °F 51% 30.39 in 10.0 mi West 4.6 mph - N/A   Clear
12:35 PM 27.3 °F 18.4 °F 9.7 °F 48% 30.37 in 10.0 mi West 9.2 mph - N/A   Clear
12:55 PM 28.0 °F 19.3 °F 9.9 °F 47% 30.36 in 10.0 mi WSW 9.2 mph - N/A   Clear
1:15 PM 28.2 °F 21.0 °F 9.5 °F 45% 30.35 in 10.0 mi West 6.9 mph - N/A   Clear
1:35 PM 28.8 °F 22.6 °F 8.6 °F 43% 30.35 in 10.0 mi WSW 5.8 mph - N/A   Clear
1:55 PM 28.8 °F 22.6 °F 9.1 °F 44% 30.34 in 10.0 mi West 5.8 mph - N/A   Clear
2:15 PM 29.3 °F 22.3 °F 9.5 °F 44% 30.33 in 10.0 mi West 6.9 mph - N/A   Clear
2:35 PM 30.0 °F 24.1 °F 9.9 °F 43% 30.33 in 10.0 mi WNW 5.8 mph - N/A   Clear
2:55 PM 30.2 °F 25.4 °F 9.9 °F 43% 30.33 in 10.0 mi WNW 4.6 mph - N/A   Clear
3:15 PM 30.2 °F 24.3 °F 9.9 °F 43% 30.34 in 10.0 mi WNW 5.8 mph - N/A   Clear
3:35 PM 30.4 °F 25.6 °F 10.2 °F 43% 30.33 in 10.0 mi West 4.6 mph - N/A   Clear
3:55 PM 30.2 °F 25.4 °F 9.7 °F 42% 30.33 in 10.0 mi WNW 4.6 mph - N/A   Clear
4:15 PM 30.0 °F - 8.6 °F 41% 30.34 in 10.0 mi Calm Calm - N/A   Clear
4:35 PM 29.7 °F - 8.2 °F 41% 30.34 in 10.0 mi Calm Calm - N/A   Clear
4:55 PM 29.3 °F - 8.8 °F 42% 30.33 in 10.0 mi Calm Calm - N/A   Clear
5:15 PM 28.0 °F - 9.1 °F 45% 30.34 in 10.0 mi Calm Calm - N/A   Clear
5:35 PM 27.3 °F - 9.5 °F 47% 30.34 in 10.0 mi Calm Calm - N/A   Scattered Clouds
5:55 PM 25.7 °F - 13.3 °F 59% 30.34 in 10.0 mi Calm Calm - N/A   Mostly Cloudy
6:15 PM 25.0 °F - 10.9 °F 55% 30.34 in 10.0 mi Calm Calm - N/A   Overcast
6:35 PM 24.8 °F - 14.2 °F 64% 30.34 in 10.0 mi Calm Calm - N/A   Overcast
6:55 PM 24.4 °F - 14.0 °F 65% 30.35 in 10.0 mi Calm Calm - N/A   Overcast
7:15 PM 24.8 °F - 13.1 °F 61% 30.35 in 10.0 mi Calm Calm - N/A   Overcast
7:35 PM 24.4 °F - 15.6 °F 69% 30.36 in 10.0 mi Calm Calm - N/A   Overcast
7:55 PM 23.9 °F - 16.5 °F 73% 30.36 in 10.0 mi Calm Calm - N/A   Overcast
8:15 PM 23.2 °F - 15.8 °F 73% 30.36 in 10.0 mi Calm Calm - N/A   Mostly Cloudy
8:35 PM 21.7 °F - 13.5 °F 70% 30.35 in 10.0 mi Calm Calm - N/A   Scattered Clouds
8:55 PM 20.3 °F - 14.0 °F 77% 30.34 in 10.0 mi Calm Calm - N/A   Clear
9:15 PM 19.9 °F - 13.1 °F 75% 30.35 in 10.0 mi Calm Calm - N/A   Clear
9:35 PM 20.1 °F - 12.9 °F 74% 30.35 in 10.0 mi Calm Calm - N/A   Clear
9:55 PM 19.0 °F - 11.8 °F 74% 30.35 in 10.0 mi Calm Calm - N/A   Clear
10:15 PM 18.0 °F - 12.0 °F 78% 30.34 in 10.0 mi Calm Calm - N/A   Clear
10:35 PM 17.6 °F - 12.6 °F 81% 30.34 in 10.0 mi Calm Calm - N/A   Clear
10:55 PM 17.6 °F - 13.1 °F 83% 30.34 in 10.0 mi Calm Calm - N/A   Clear
11:15 PM 18.1 °F - 13.1 °F 81% 30.34 in 10.0 mi Calm Calm - N/A   Clear
11:35 PM 18.1 °F - 13.1 °F 81% 30.34 in 10.0 mi Calm Calm - N/A   Clear
11:55 PM 18.3 °F - 12.9 °F 79% 30.34 in 10.0 mi Calm Calm - N/A   Clear